Torna al catalogo

STARLINK-34578

AttivoComunicazioniSSO
NORAD 64856·PAYLOAD·🇺🇸 United States

Lanciato Jul 19, 2025 da Vandenberg Space Force Base

Loading…

Prossimi Passaggi (prossime 24 ore)

TLE

AggiornatoSource: CelesTrak SupGP

Epoca: Sep 15, 2026, 03:42 UTC

1 64856C 25152Q   26258.15465278 -.00036821  00000+0 -11427-2 0  2581
2 64856  97.2848 108.8154 0001743  92.7678 345.9549 15.33465191    18

Traccia STARLINK-34578 in tempo reale con AllMySat

Download on the App Store